EHI
0 0 0 0 0 0 0 0 0 0 0 0 1 2 2 2 1 1 0 0 1 3 4 4 5 5 6 8 12 13 12 10 9 7 5 3 1 1 1 0 1 3 3 3
0 0 0 0 0 0 0 0 0 0 0 0 1 2 3 3 3 2 1 1 1 3 5 6 7 7 9 12 14 14 13 12 11 8 6 3 2 1 1 0 1 2 3 3
0 0 0 0 0 0 0 0 0 0 0 0 1 1 2 3 4 4 3 2 1 3 4 7 10 11 12 15 17 16 16 16 16 13 9 6 5 4 3 2 2 3 4 5
0 0 0 0 0 0 0 0 0 0 0 0 0 0 1 2 4 5 5 3 2 3 4 7 11 12 13 14 16 17 18 19 19 16 12 10 10 8 5 4 4 5 6 7
0 0 0 0 0 0 0 0 0 0 0 0 0 0 1 1 3 4 4 3 3 3 4 7 9 11 11 11 13 16 19 20 21 18 14 12 12 10 7 6 5 5 6 7
0 0 0 0 0 0 0 0 0 0 0 0 0 1 1 1 1 3 3 4 4 4 5 6 8 10 10 10 13 18 22 24 23 20 16 13 13 12 10 8 6 6 7 7
0 0 0 0 0 0 0 0 0 0 0 0 0 1 1 2 2 2 3 5 6 7 8 9 12 13 13 12 16 23 28 28 25 21 19 17 16 15 13 9 7 8 7 7
0 0 0 0 0 0 0 0 0 0 0 0 0 0 1 2 3 2 3 6 8 10 12 16 20 20 17 15 20 27 31 30 26 24 23 22 19 16 14 11 9 9 8 5
0 0 0 0 0 0 0 0 0 0 0 0 0 0 1 2 3 1 2 6 9 12 15 20 24 23 18 17 22 29 33 32 28 25 24 23 20 17 14 11 10 9 7 6
0 0 0 0 0 0 0 0 0 0 0 0 0 0 1 3 3 2 2 5 10 13 16 20 22 21 18 17 21 27 31 30 26 23 20 18 17 17 14 11 10 9 8 8
0 0 0 0 0 0 0 0 0 0 0 0 0 0 1 4 4 3 3 7 12 14 16 18 20 19 17 17 19 22 24 24 22 20 17 14 14 16 15 12 12 11 11 11
0 0 0 0 0 0 0 0 0 0 0 0 0 1 3 5 5 3 5 10 14 16 16 17 17 17 18 19 18 18 18 20 20 20 18 15 14 15 15 14 15 16 17 17
0 0 0 0 0 0 0 0 0 0 0 0 0 1 3 5 4 4 7 12 16 17 16 16 16 16 19 22 20 18 18 20 21 22 20 17 16 17 17 16 18 20 22 22
0 0 0 0 0 0 0 0 0 0 0 0 0 1 3 5 4 4 8 12 16 17 16 15 16 18 23 27 26 25 24 24 26 27 25 23 21 21 21 21 21 22 24 24
0 0 0 0 0 0 0 0 0 0 0 0 0 1 3 5 4 4 7 12 16 17 15 14 15 20 27 31 32 31 29 29 31 33 32 30 28 27 26 26 26 25 26 25
0 0 0 0 0 0 0 0 0 0 0 0 0 1 3 4 5 5 6 10 14 15 13 13 16 22 29 33 33 32 31 33 36 38 37 35 34 33 31 31 31 30 29 29
0 0 0 0 0 0 0 0 0 0 0 0 0 1 2 4 6 6 5 7 11 11 11 13 17 25 31 33 32 31 31 33 38 40 40 38 38 38 37 35 35 34 32 32
0 0 0 0 0 0 0 0 0 1 0 0 0 0 1 4 6 6 6 8 10 10 11 15 19 26 32 33 29 27 27 31 36 39 40 40 41 42 42 40 38 37 36 35
0 0 0 0 0 0 0 0 0 0 0 0 0 0 1 3 4 6 9 13 13 14 17 19 21 26 31 31 26 24 26 30 35 39 40 40 41 43 44 43 40 39 38 36
0 0 0 0 0 0 0 0 0 0 0 0 1 1 2 3 4 8 15 19 19 20 22 23 21 23 27 28 25 26 31 35 38 40 41 41 41 43 43 43 42 40 37 35
0 0 0 0 0 0 0 0 0 0 1 1 2 3 4 6 9 14 20 24 24 23 25 24 23 23 26 28 28 30 35 39 40 41 41 41 40 40 40 41 41 39 35 33
0 0 0 0 0 0 0 0 0 1 3 3 3 5 8 10 15 19 21 23 25 26 27 26 25 25 28 30 31 31 33 35 38 39 40 39 39 37 37 38 38 36 32 30
0 0 0 1 1 1 0 0 0 2 5 6 5 6 10 15 19 20 20 22 26 29 28 25 23 24 27 28 28 27 28 30 34 36 37 39 38 36 35 35 33 31 28 25
0 0 1 2 2 1 1 0 2 4 7 7 6 7 11 16 19 20 20 23 29 31 28 22 19 19 21 22 24 25 26 29 33 35 38 39 38 34 32 30 26 23 20 18
0 1 2 2 1 1 1 1 3 5 6 5 5 8 11 14 17 18 20 24 29 31 27 22 18 16 16 18 22 23 25 28 33 36 38 38 36 31 26 23 18 14 11 10
0 1 2 1 0 0 1 2 3 4 3 2 4 8 11 13 15 16 18 23 28 29 26 23 20 17 16 19 21 22 24 28 32 36 37 35 32 28 23 18 12 7 6 5
Wind_Speed
7 8 6 3 3 4 4 4 2 1 1 4 4 3 5 9 9 9 9 10 10 10 10 10 10 10 10 9 9 9 9 8 7 5 5 5 4 4 4 3 3 4 4 3
8 9 4 2 3 5 6 5 3 1 1 4 3 4 4 7 9 9 10 10 10 10 10 10 10 11 11 10 10 9 9 9 8 6 5 4 4 4 3 3 2 3 3 3
11 3 3 5 6 7 6 5 3 2 1 5 4 5 6 7 8 8 9 9 10 10 11 11 11 11 11 11 10 9 9 9 9 7 6 4 4 4 4 3 2 3 3 3
9 5 6 8 7 7 6 3 4 4 6 3 5 4 4 5 7 8 9 10 11 10 10 10 11 11 10 10 10 10 9 9 8 8 7 7 6 5 4 3 2 2 2 3
7 6 8 8 6 6 3 2 5 6 7 6 5 6 2 5 5 6 8 9 10 9 10 10 10 10 9 9 8 8 8 8 8 8 8 7 7 5 3 3 2 2 2 2
8 6 7 6 4 5 4 6 6 8 8 7 3 6 1 2 2 3 6 8 8 8 9 8 9 9 9 8 8 8 8 8 8 8 7 7 6 5 4 3 3 3 2 2
11 10 7 6 7 7 9 9 6 7 6 3 2 6 1 2 0 1 4 7 8 8 9 9 10 10 9 9 9 8 8 8 8 8 7 7 6 5 5 5 4 3 2 2
11 10 10 7 8 7 9 10 8 7 6 2 5 5 0 1 1 2 3 5 7 8 8 9 9 10 9 10 10 9 9 8 8 8 7 6 6 5 4 4 3 3 2 1
8 7 6 5 6 8 8 8 8 9 9 8 4 4 3 3 3 3 4 5 6 6 7 8 9 9 10 9 9 9 9 8 7 7 6 5 5 5 4 4 4 3 2 2
7 7 6 5 7 6 8 6 7 9 8 9 6 7 3 4 3 3 3 4 5 6 6 7 7 8 9 9 9 9 9 8 8 7 6 6 6 5 4 4 4 3 2 2
9 9 7 8 9 8 8 9 8 8 8 10 8 3 1 2 2 3 4 4 4 5 5 6 6 7 8 8 8 9 9 8 8 7 6 6 6 6 6 5 4 4 3 3
8 9 8 8 5 5 8 9 10 9 8 9 10 3 2 1 2 2 2 3 3 4 4 5 6 7 7 8 8 8 8 8 8 7 7 6 6 6 6 5 5 4 4 4
6 9 9 10 10 9 9 9 10 10 9 9 11 4 4 2 1 1 2 2 3 3 4 5 5 6 7 7 8 8 8 8 8 7 7 6 6 6 5 5 4 4 4 4
7 11 11 12 7 6 9 10 11 12 10 10 11 8 3 3 3 2 2 2 3 4 4 4 5 5 5 6 7 7 7 7 7 7 7 6 6 5 5 5 4 4 4 4
7 11 12 12 9 8 10 11 11 13 12 12 10 9 6 4 3 3 3 3 3 4 4 5 5 5 5 6 6 6 6 7 7 7 7 6 6 5 4 4 4 4 4 4
7 9 10 12 11 11 12 12 12 13 12 13 11 10 5 3 3 4 4 4 4 4 4 5 5 5 6 6 7 7 7 7 7 7 7 6 6 5 5 5 4 4 4 4
7 8 10 12 10 12 14 12 12 12 11 11 12 7 3 4 4 4 4 4 4 4 4 4 4 5 5 6 6 7 7 7 7 7 7 7 7 6 6 5 5 5 4 4
8 9 8 9 9 15 7 4 8 10 10 9 8 5 4 4 4 4 3 3 3 3 3 3 4 4 4 5 6 6 7 7 7 7 7 7 7 6 6 5 5 5 4 4
9 8 8 9 12 12 7 4 6 9 9 7 7 5 4 4 5 5 2 2 2 2 2 2 3 3 3 4 5 6 7 7 8 7 7 7 7 7 6 6 5 4 4 4
7 8 9 10 12 12 6 2 3 7 10 4 4 5 4 5 7 1 1 0 1 1 1 1 2 2 3 3 4 5 6 7 7 7 7 7 7 6 6 5 5 4 4 4
9 9 11 12 12 9 0 1 4 10 4 1 2 3 4 5 4 3 1 1 1 1 1 1 1 2 2 3 3 4 4 5 6 6 6 6 6 6 6 5 4 4 4 4
9 8 9 10 12 7 3 3 5 3 3 1 2 2 3 2 2 2 1 1 1 1 2 1 1 1 2 3 3 4 4 4 4 5 5 6 5 5 5 5 5 5 4 5
7 6 5 6 4 2 1 2 2 3 3 2 2 2 2 2 1 0 0 1 1 1 1 1 1 1 2 2 3 3 3 3 4 5 5 5 5 4 4 5 4 4 4 4
4 3 5 6 5 3 3 4 3 4 3 3 2 2 2 2 2 1 1 1 1 1 1 1 1 2 2 2 3 3 3 3 4 4 4 4 5 4 4 3 3 3 3 3
3 5 6 8 6 6 6 5 4 4 3 3 2 2 3 3 3 2 1 1 0 0 1 1 1 2 2 2 2 2 2 3 4 4 4 4 4 4 3 3 1 2 1 1
6 6 8 6 5 6 5 4 4 4 4 3 2 2 3 3 3 2 1 1 0 0 1 1 1 2 1 2 1 1 2 3 4 4 4 3 3 3 3 3 2 3 1 3
Wind_Direction
203 226 229 233 278 301 284 273 289 46 98 251 241 233 175 178 194 195 196 197 198 200 194 193 195 198 197 196 198 201 204 194 199 203 208 204 209 218 219 224 220 233 242 235
213 225 230 254 258 250 249 253 243 162 93 264 264 247 202 188 202 206 204 202 202 198 191 190 194 197 197 193 195 198 203 201 204 201 211 216 226 231 231 248 236 244 239 239
235 233 201 234 237 238 241 263 288 302 230 216 254 215 192 188 202 210 215 211 205 200 194 189 193 198 197 194 195 200 201 202 208 204 209 209 210 236 229 232 229 245 246 246
238 227 219 235 236 247 243 256 267 262 259 251 254 270 168 186 197 205 211 211 209 202 201 196 193 197 198 196 193 198 198 201 203 205 214 215 220 227 231 232 226 227 234 248
222 216 228 243 247 255 283 261 255 260 262 265 238 273 138 174 207 201 201 205 206 201 201 198 198 197 197 193 191 190 193 198 202 210 213 219 228 230 230 223 213 238 216 236
244 235 246 255 252 233 211 221 224 236 246 247 251 273 244 131 229 204 184 186 195 195 198 199 195 191 190 188 188 185 184 192 196 204 211 217 226 223 222 223 216 222 207 208
220 217 213 225 220 200 219 238 240 233 231 235 172 260 295 58 359 234 189 178 183 190 192 192 191 185 184 185 186 183 181 189 193 198 203 205 214 213 215 225 216 230 229 216
219 212 202 209 237 237 230 254 267 279 281 256 204 250 178 101 169 202 188 175 177 184 182 186 187 186 184 185 186 186 184 187 190 194 196 195 201 211 210 216 230 221 244 249
233 220 180 204 236 251 235 244 275 275 271 273 250 234 203 185 184 178 175 173 178 180 181 183 183 185 185 186 185 185 183 183 185 183 183 186 195 210 209 204 219 223 222 223
247 242 203 190 210 230 262 257 250 260 270 271 255 244 234 201 210 196 196 189 186 181 179 177 179 180 181 183 181 181 178 180 180 178 187 183 192 203 210 217 214 223 223 226
245 240 217 207 224 225 213 227 246 259 267 274 274 266 53 203 215 213 207 196 192 187 181 175 174 175 175 175 175 176 176 179 181 182 188 192 193 199 202 211 215 215 218 214
232 245 238 227 224 259 247 243 237 249 252 261 276 269 104 209 225 221 212 184 172 178 174 169 169 172 174 175 176 177 180 180 181 182 186 193 197 200 202 202 209 209 210 214
215 241 233 221 209 208 229 236 242 254 253 255 262 253 131 156 202 209 201 189 167 170 170 165 168 176 179 180 180 180 184 184 181 180 186 190 198 199 202 205 206 206 204 211
236 240 247 253 256 228 225 229 234 246 253 255 260 269 235 234 241 239 222 203 186 179 184 183 175 180 185 186 185 188 189 185 184 184 187 191 199 199 197 198 201 205 207 211
238 241 243 256 262 257 252 246 235 240 257 268 273 268 263 260 257 247 237 224 202 197 199 198 192 183 189 190 189 189 187 182 182 186 191 191 193 195 198 197 202 206 212 213
234 248 244 246 247 251 254 251 242 242 250 257 263 266 277 272 250 242 236 233 227 220 212 208 205 198 195 195 192 188 188 183 181 186 190 187 190 192 195 198 200 203 207 215
220 232 242 247 237 244 244 241 241 243 248 257 259 268 272 259 252 252 249 244 238 235 232 224 220 211 200 197 194 192 188 184 184 186 187 187 189 190 194 199 194 200 204 207
229 233 240 248 237 244 252 239 244 249 249 253 262 265 265 276 263 254 245 246 248 252 247 235 226 212 203 193 187 188 184 183 187 187 187 189 191 190 191 196 196 201 203 203
225 225 241 242 241 245 231 220 232 243 246 248 256 255 258 267 240 213 219 246 255 257 248 241 238 213 193 187 181 184 188 186 191 190 190 191 191 191 192 194 194 197 199 204
200 217 236 237 249 251 246 191 246 246 241 229 245 247 247 245 251 216 78 304 282 285 260 215 219 202 179 179 183 189 190 192 198 197 193 189 190 191 193 193 196 195 200 207
192 208 229 237 244 249 251 139 218 238 266 65 238 246 246 247 308 21 63 31 5 41 93 122 179 189 168 168 178 195 196 201 204 199 189 186 189 193 189 186 190 193 200 199
222 217 220 235 243 240 104 179 234 303 357 326 271 261 264 287 354 49 78 90 75 74 86 124 158 178 161 160 172 191 201 201 196 189 187 186 188 196 181 182 189 193 196 195
236 253 246 247 256 51 166 252 306 319 305 302 284 280 254 241 215 115 92 87 91 102 113 133 155 174 179 179 191 202 196 194 192 191 187 182 182 188 184 188 190 194 201 214
216 268 253 246 239 235 230 251 269 279 283 296 295 273 239 223 214 213 146 105 97 97 147 176 200 198 190 185 199 208 190 185 190 190 183 180 183 187 182 197 200 205 215 230
253 233 239 243 253 247 237 249 255 259 263 264 259 238 219 215 211 195 164 145 118 156 207 206 213 204 198 194 203 203 183 183 190 192 190 190 190 186 185 196 208 230 235 274
235 236 244 254 254 262 259 261 262 259 253 243 233 215 207 208 196 181 169 153 151 312 268 240 220 202 195 201 199 186 185 190 194 194 202 205 199 185 190 184 170 84 129 114